Sheldon, IA

5:41 AM CDT on May 26, 2018 (GMT -0500)
Sheldon Municipal

Weather History for KSHL - December, 2011

Change the Weather History Date:

Monday, December 19, 2011

  Actual Average Record
Temperature  
Mean Temperature 29 °F -  
Max Temperature 37 °F 27 °F 55 °F (1979)
Min Temperature 21 °F 9 °F -24 °F (1983)
Degree Days  
Heating Degree Days 36    
Moisture  
Dew Point 24 °F    
Average Humidity 79    
Maximum Humidity 100    
Minimum Humidity 56    
Precipitation  
Precipitation 0.00 in - - ()
Sea Level Pressure  
Sea Level Pressure 30.11 in    
Wind  
Wind Speed 10 mph (NNE)    
Max Wind Speed 28 mph    
Max Gust Speed 31 mph    
Visibility 9 miles    
Events Fog    
Averages and records for this station are not official NWS values.
T = Trace of Precipitation, MM = Missing Value Source: NWS Daily Summary

Daily Weather History Graph

Daily Weather History Graph

Search for Another Location

Airport or City:

Astronomy

Dec. 19, 2011 Rise Set
Actual Time 7:50 AM CST 4:49 PM CST
Civil Twilight 7:18 AM CST 5:22 PM CST
Nautical Twilight 6:42 AM CST 5:58 PM CST
Astronomical Twilight 6:07 AM CST 6:33 PM CST
Moon 1:56 AM CST (12/19) 12:54 PM CST (12/19)
Length of Visible Light 10h 04m
Length of Day
8h 59m
Waning Crescent, 31% of the Moon is Illuminated
Dec 19
Waning Crescent
Dec 24
New
Jan 1
First Quarter
Jan 9
Full
Jan 16
Last Quarter

Hourly Weather History & Observations

Time (CST) Temp. Windchill Dew Point Humidity Pressure Visibility Wind Dir Wind Speed Gust Speed Precip Events Conditions
12:15 AM 26.6 °F - 26.6 °F 100% 29.81 in 0.2 mi Calm Calm - N/A Fog Light Freezing Fog
12:35 AM 26.6 °F - 26.6 °F 100% 29.81 in 0.2 mi Calm Calm - N/A Fog Light Freezing Fog
12:55 AM 26.6 °F - 24.8 °F 93% 29.82 in 0.5 mi Calm Calm - N/A Fog Light Freezing Fog
1:15 AM 24.8 °F - 24.8 °F 100% 29.84 in 0.2 mi Calm Calm - N/A Fog Light Freezing Fog
1:35 AM 24.8 °F - 23.0 °F 93% 29.85 in 0.2 mi Calm Calm - N/A Fog Light Freezing Fog
1:55 AM 26.6 °F 22.6 °F 24.8 °F 93% 29.85 in 1.5 mi NNW 3.5 mph - N/A   Mist
2:15 AM 28.4 °F 22.2 °F 28.4 °F 100% 29.87 in 7.0 mi North 5.8 mph - N/A   Clear
2:35 AM 28.4 °F 20.4 °F 28.4 °F 100% 29.88 in 10.0 mi North 8.1 mph - N/A   Clear
2:55 AM 30.2 °F 21.3 °F 30.2 °F 100% 29.89 in 10.0 mi NNE 10.4 mph - N/A   Clear
3:15 AM 32.0 °F 24.2 °F 30.2 °F 93% 29.90 in 10.0 mi North 9.2 mph - N/A   Clear
3:35 AM 30.2 °F 20.8 °F 28.4 °F 93% 29.91 in 10.0 mi North 11.5 mph - N/A   Clear
3:55 AM 32.0 °F 20.1 °F 28.4 °F 87% 29.92 in 10.0 mi NNE 19.6 mph 24.2 mph N/A   Clear
4:15 AM 30.2 °F 19.3 °F 28.4 °F 93% 29.94 in 10.0 mi North 15.0 mph - N/A   Scattered Clouds
4:35 AM 30.2 °F 18.1 °F 28.4 °F 93% 29.95 in 10.0 mi North 18.4 mph 21.9 mph N/A   Mostly Cloudy
4:55 AM 30.2 °F 17.4 °F 26.6 °F 86% 29.97 in 10.0 mi North 20.7 mph 31.1 mph N/A   Mostly Cloudy
5:15 AM 30.2 °F 17.8 °F 26.6 °F 86% 29.99 in 10.0 mi North 19.6 mph 26.5 mph N/A   Clear
5:35 AM 28.4 °F 14.4 °F 24.8 °F 86% 30.00 in 10.0 mi North 23.0 mph 26.5 mph N/A   Clear
5:55 AM 28.4 °F 14.7 °F 24.8 °F 86% 30.02 in 10.0 mi North 21.9 mph 26.5 mph N/A   Clear
6:15 AM 28.4 °F 14.4 °F 24.8 °F 86% 30.04 in 10.0 mi North 23.0 mph - N/A   Clear
6:55 AM 28.4 °F 15.8 °F 23.0 °F 80% 30.08 in 10.0 mi North 18.4 mph - N/A   Clear
7:15 AM 26.6 °F 13.8 °F 21.2 °F 80% 30.10 in 10.0 mi North 17.3 mph 23.0 mph N/A   Clear
7:35 AM 26.6 °F 14.3 °F 21.2 °F 80% 30.11 in 10.0 mi North 16.1 mph 27.6 mph N/A   Clear
7:55 AM 26.6 °F 13.4 °F 21.2 °F 80% 30.12 in 10.0 mi North 18.4 mph 23.0 mph N/A   Clear
8:15 AM 26.6 °F 14.7 °F 21.2 °F 80% 30.13 in 10.0 mi North 15.0 mph - N/A   Clear
8:35 AM 26.6 °F 14.7 °F 21.2 °F 80% 30.14 in 10.0 mi North 15.0 mph - N/A   Clear
8:55 AM 28.4 °F 16.6 °F 21.2 °F 74% 30.16 in 10.0 mi North 16.1 mph 21.9 mph N/A   Clear
9:15 AM 28.4 °F 17.5 °F 23.0 °F 80% 30.18 in 10.0 mi North 13.8 mph 19.6 mph N/A   Clear
9:55 AM 30.2 °F 16.8 °F 23.0 °F 75% 30.19 in 10.0 mi North 23.0 mph - N/A   Clear
10:15 AM 32.0 °F 18.1 °F 23.0 °F 69% 30.19 in 10.0 mi North 27.6 mph 31.1 mph N/A   Clear
10:35 AM 30.2 °F 17.1 °F 23.0 °F 75% 30.20 in 10.0 mi North 21.9 mph 26.5 mph N/A   Clear
10:55 AM 33.8 °F 21.6 °F 24.8 °F 70% 30.22 in 10.0 mi North 23.0 mph 31.1 mph N/A   Clear
11:15 AM 33.8 °F 21.6 °F 23.0 °F 65% 30.22 in 10.0 mi North 23.0 mph - N/A   Clear
11:35 AM 33.8 °F 21.9 °F 23.0 °F 65% 30.21 in 10.0 mi North 21.9 mph 27.6 mph N/A   Clear
11:55 AM 35.6 °F 24.8 °F 24.8 °F 65% 30.22 in 10.0 mi North 19.6 mph - N/A   Clear
12:15 PM 35.6 °F 25.2 °F 24.8 °F 65% 30.22 in 10.0 mi North 18.4 mph 23.0 mph N/A   Clear
12:35 PM 35.6 °F 25.9 °F 24.8 °F 65% 30.21 in 10.0 mi North 16.1 mph - N/A   Clear
12:55 PM 35.6 °F 25.5 °F 24.8 °F 65% 30.21 in 10.0 mi North 17.3 mph - N/A   Clear
1:15 PM 35.6 °F 25.9 °F 24.8 °F 65% 30.20 in 10.0 mi NNE 16.1 mph 21.9 mph N/A   Clear
1:35 PM 35.6 °F 25.9 °F 23.0 °F 60% 30.19 in 10.0 mi North 16.1 mph - N/A   Clear
1:55 PM 35.6 °F 26.2 °F 24.8 °F 65% 30.18 in 10.0 mi North 15.0 mph - N/A   Clear
2:15 PM 35.6 °F 25.9 °F 23.0 °F 60% 30.18 in 10.0 mi North 16.1 mph - N/A   Clear
2:35 PM 37.4 °F 27.8 °F 23.0 °F 56% 30.18 in 10.0 mi North 17.3 mph 23.0 mph N/A   Clear
3:15 PM 35.6 °F 25.5 °F 21.2 °F 56% 30.19 in 10.0 mi North 17.3 mph - N/A   Clear
3:35 PM 33.8 °F 24.3 °F 21.2 °F 60% 30.20 in 10.0 mi North 13.8 mph 18.4 mph N/A   Clear
3:55 PM 33.8 °F 23.9 °F 21.2 °F 60% 30.21 in 10.0 mi NNE 15.0 mph - N/A   Clear
4:15 PM 32.0 °F 23.6 °F 21.2 °F 64% 30.23 in 10.0 mi North 10.4 mph - N/A   Clear
4:35 PM 30.2 °F 23.4 °F 21.2 °F 69% 30.25 in 10.0 mi NNE 6.9 mph - N/A   Clear
4:55 PM 28.4 °F 21.2 °F 21.2 °F 74% 30.25 in 10.0 mi NNE 6.9 mph - N/A   Clear
5:15 PM 26.6 °F 18.2 °F 21.2 °F 80% 30.25 in 10.0 mi NNE 8.1 mph - N/A   Clear
5:35 PM 28.4 °F 20.4 °F 21.2 °F 74% 30.26 in 10.0 mi NNE 8.1 mph - N/A   Clear
5:55 PM 28.4 °F 20.4 °F 21.2 °F 74% 30.27 in 10.0 mi NE 8.1 mph - N/A   Clear
6:15 PM 28.4 °F 20.4 °F 21.2 °F 74% 30.27 in 10.0 mi NNE 8.1 mph - N/A   Clear
6:35 PM 26.6 °F 18.2 °F 21.2 °F 80% 30.27 in 10.0 mi NNE 8.1 mph - N/A   Clear
7:15 PM 24.8 °F 16.9 °F 19.4 °F 80% 30.27 in 10.0 mi NNE 6.9 mph - N/A   Clear
7:35 PM 23.0 °F 15.8 °F 19.4 °F 86% 30.27 in 10.0 mi NNE 5.8 mph - N/A   Clear
7:55 PM 21.2 °F 13.6 °F 19.4 °F 93% 30.27 in 10.0 mi NNE 5.8 mph - N/A   Clear
8:15 PM 21.2 °F 12.6 °F 19.4 °F 93% 30.27 in 10.0 mi NNE 6.9 mph - N/A   Clear
8:35 PM 21.2 °F 13.6 °F 19.4 °F 93% 30.27 in 10.0 mi NNE 5.8 mph - N/A   Clear
8:55 PM 21.2 °F 13.6 °F 17.6 °F 86% 30.27 in 10.0 mi North 5.8 mph - N/A   Clear
9:15 PM 19.4 °F 14.3 °F 17.6 °F 93% 30.27 in 10.0 mi NNE 3.5 mph - N/A   Clear
9:35 PM 21.2 °F 14.9 °F 17.6 °F 86% 30.26 in 10.0 mi North 4.6 mph - N/A   Clear
9:55 PM 21.2 °F 10.9 °F 17.6 °F 86% 30.26 in 10.0 mi NNE 9.2 mph - N/A   Clear
10:15 PM 21.2 °F 11.7 °F 17.6 °F 86% 30.26 in 10.0 mi NNE 8.1 mph - N/A   Clear
10:35 PM 21.2 °F 11.7 °F 17.6 °F 86% 30.26 in 10.0 mi NNE 8.1 mph - N/A   Clear
10:55 PM 21.2 °F 14.9 °F 17.6 °F 86% 30.26 in 10.0 mi NNE 4.6 mph - N/A   Clear
11:15 PM 19.4 °F 10.4 °F 17.6 °F 93% 30.25 in 10.0 mi NNE 6.9 mph - N/A   Clear
11:35 PM 19.4 °F 9.5 °F 17.6 °F 93% 30.24 in 10.0 mi NNE 8.1 mph - N/A   Clear
11:55 PM 19.4 °F 9.5 °F 17.6 °F 93% 30.24 in 10.0 mi North 8.1 mph - N/A   Clear